Dewpoint
51 42 40 36 23 24 22 20 21 22 25 32 37 30 31 41 33 24 51 59 65 69 70 70 72 73 72 72 72 72 72 71 70 68 68 67 67 65 65 65 64 63 63 62 63 65 66 66 66
49 40 38 30 18 17 18 21 22 22 31 34 30 35 41 44 47 51 54 67 69 70 70 70 71 72 73 73 72 72 71 71 69 68 67 67 66 65 65 64 62 61 61 61 61 62 64 65 63
41 35 29 24 19 16 19 19 21 26 32 23 33 38 43 44 49 49 55 68 70 70 70 70 70 71 72 72 72 72 72 71 70 68 67 67 66 66 64 63 61 59 58 58 59 59 61 61 63
34 32 23 17 20 17 18 19 21 26 22 29 36 38 46 48 49 54 59 68 69 70 70 70 71 72 72 72 72 72 71 70 70 68 67 67 66 66 65 64 62 59 56 56 56 57 58 59 60
32 28 18 17 25 27 18 19 20 20 19 26 30 37 45 47 53 59 66 67 67 69 69 69 70 71 72 72 72 71 71 70 70 69 67 67 67 66 65 64 63 61 56 54 54 54 56 56 57
28 24 17 16 16 21 21 20 20 17 25 30 34 37 42 44 55 55 61 62 66 68 69 69 67 68 70 70 71 71 71 70 70 69 68 67 67 66 65 64 63 61 56 52 51 52 53 53 54
24 22 19 16 14 20 19 20 15 19 22 25 33 34 40 45 53 51 52 54 59 64 67 69 68 67 67 68 68 69 69 70 69 69 69 68 68 67 65 65 64 61 58 54 52 51 51 50 52
25 20 15 20 15 15 19 19 16 19 21 27 29 30 40 41 50 45 44 44 46 49 52 61 67 67 67 68 65 66 67 68 68 68 67 66 66 66 65 64 64 62 59 56 53 52 51 51 51
21 12 12 14 15 18 20 18 22 24 24 28 30 30 31 42 45 43 42 41 43 43 44 46 58 62 68 68 66 64 65 66 66 65 64 63 65 65 64 63 64 63 61 58 55 53 52 50 51
20 12 15 17 18 19 20 19 21 21 24 25 29 31 35 43 41 43 43 42 40 41 44 45 46 50 56 65 67 66 66 67 67 65 65 65 65 64 64 61 62 62 62 61 57 55 52 47 43
19 14 17 21 25 24 20 20 21 20 20 23 26 30 33 39 40 39 38 39 39 40 45 49 50 50 48 57 65 67 66 66 67 64 65 66 64 63 62 61 59 59 57 57 54 51 49 47 47
21 21 16 26 27 23 21 22 21 21 25 27 25 31 33 36 38 37 35 36 38 42 47 48 50 51 50 49 61 66 64 65 65 65 65 64 63 61 61 61 60 59 57 55 54 53 52 50 50
19 22 22 28 27 26 27 24 22 23 28 30 30 32 32 34 35 35 35 37 39 44 46 47 49 51 52 48 64 63 62 62 63 64 65 65 63 62 62 61 60 59 57 55 53 52 52 51 50
25 26 25 26 27 27 26 25 26 25 29 30 31 31 32 33 33 34 35 37 41 44 46 48 52 53 53 57 61 60 60 59 60 60 61 62 62 60 59 58 57 56 55 54 54 52 51 50 50
26 21 22 22 26 26 26 22 23 25 29 29 29 30 31 31 32 33 35 36 41 45 46 48 52 54 54 57 57 57 57 57 57 57 57 58 59 58 56 55 55 54 54 53 50 47 46 45 46
22 23 23 23 28 26 22 20 22 26 28 28 28 29 29 30 31 32 34 35 43 44 46 48 52 53 54 55 54 54 54 55 55 55 55 55 55 55 54 53 52 52 50 48 46 44 42 43 44
23 20 22 22 26 25 22 21 25 27 27 27 27 28 29 29 29 31 32 36 44 45 46 47 48 51 51 50 48 48 47 49 50 51 51 50 50 50 50 49 48 47 44 40 38 38 40 42 42
20 22 22 22 24 24 23 22 24 26 27 26 26 27 28 28 28 29 32 40 43 44 45 46 48 48 46 45 42 41 41 40 42 45 45 44 43 43 43 42 42 41 35 32 33 35 35 38 38
21 22 22 24 25 23 23 23 23 24 26 26 26 26 27 28 29 30 33 41 43 44 44 45 46 45 44 44 43 42 38 37 37 37 38 39 37 35 35 35 35 34 31 30 29 30 34 30 32
23 23 22 24 25 24 24 23 24 24 24 25 25 26 26 27 28 29 34 41 42 44 44 44 45 44 43 44 37 34 33 30 31 33 33 33 32 31 32 31 29 28 27 25 24 24 24 23 25
24 23 23 23 25 24 23 23 23 24 25 25 25 25 26 26 27 28 33 40 42 43 44 45 44 44 44 34 31 29 29 29 29 30 30 30 30 30 28 27 26 24 24 22 21 20 18 19 22
24 26 25 25 25 23 26 19 22 24 25 25 26 25 25 26 27 28 31 39 42 43 44 45 44 43 34 33 33 33 34 32 28 28 28 28 28 26 26 25 24 24 23 21 21 20 18 17 16
26 28 27 27 25 24 24 22 25 25 24 25 26 27 26 26 27 28 31 36 41 44 44 45 44 36 33 33 34 34 33 27 26 26 26 25 26 25 24 23 23 22 22 22 21 21 20 20 19
29 26 27 28 25 22 22 23 19 23 24 25 26 26 28 27 28 28 31 37 41 42 44 45 42 36 33 33 32 29 26 25 25 24 24 23 23 23 23 22 22 22 22 21 22 22 21 21 22
27 25 22 20 21 21 25 23 20 23 25 26 25 27 29 28 27 29 33 39 40 41 44 43 39 33 33 32 30 27 25 24 22 22 21 20 20 21 20 21 21 21 22 23 23 22 21 20 20
27 26 23 14 18 18 25 24 25 28 27 28 29 30 30 27 28 30 33 38 39 40 42 40 38 32 31 30 28 27 25 23 21 20 19 18 18 18 20 21 21 21 21 22 22 22 21 20 20
26 25 26 23 14 20 20 23 26 29 29 29 29 29 27 27 28 30 34 37 38 39 39 39 35 32 30 29 27 25 23 22 20 20 19 18 18 18 19 20 20 21 21 20 20 20 19 19 19
26 28 25 25 15 15 20 23 22 26 27 28 28 28 28 27 27 30 34 36 36 36 34 33 32 30 29 27 26 23 22 21 20 19 19 18 17 17 19 19 19 19 19 19 19 19 19 18 19
27 26 26 26 25 18 17 20 27 27 27 27 28 28 29 27 27 29 32 33 33 32 29 28 29 29 27 26 25 24 22 21 20 19 19 17 17 17 17 18 19 19 18 18 17 18 17 17 17
29 26 26 23 21 25 24 21 29 29 29 28 28 28 29 27 26 27 29 29 28 28 27 26 26 27 27 26 25 23 22 21 20 18 17 18 16 17 17 17 18 18 18 17 15 15 15 15 15
Lifted_Index
8 7 6 5 4 4 3 4 5 6 6 6 5 5 5 4 4 3 0 -2 -3 -4 -4 -5 -5 -5 -6 -6 -6 -6 -5 -5 -4 -3 -2 -2 -1 -0 0 1 2 2 3 3 3 2 2 1 1
8 7 6 5 4 3 3 4 5 6 6 6 6 5 4 4 3 2 -0 -3 -4 -4 -5 -5 -5 -5 -5 -6 -6 -5 -5 -5 -4 -3 -2 -2 -1 -0 1 1 2 3 4 4 4 3 3 2 2
7 6 6 5 4 3 4 5 5 6 6 6 6 5 4 3 2 1 -1 -3 -5 -5 -5 -5 -5 -5 -5 -6 -5 -5 -5 -5 -4 -3 -2 -2 -1 -0 1 2 3 4 5 6 6 5 4 4 3
6 6 5 4 4 4 5 6 6 6 6 6 6 5 3 2 2 0 -2 -4 -5 -5 -5 -5 -5 -5 -5 -6 -6 -5 -5 -5 -4 -3 -2 -2 -1 -0 1 2 3 5 6 7 8 7 7 6 6
6 6 5 4 4 5 6 7 7 6 6 7 6 5 3 2 1 -1 -3 -4 -4 -5 -5 -5 -5 -5 -5 -6 -6 -5 -5 -5 -4 -3 -2 -2 -1 -1 0 1 2 4 6 8 9 9 8 8 8
6 5 4 3 4 5 6 7 7 7 7 7 7 6 4 2 0 -2 -4 -4 -4 -4 -4 -4 -4 -4 -5 -5 -5 -5 -5 -5 -4 -4 -3 -2 -2 -1 0 1 2 4 6 7 9 9 10 10 9
6 5 4 3 4 5 6 7 7 7 7 7 7 6 4 2 0 -2 -4 -4 -4 -4 -4 -4 -4 -4 -4 -4 -4 -4 -4 -4 -4 -4 -3 -2 -2 -1 -0 1 2 3 5 6 7 8 10 10 11
6 5 4 3 4 5 6 7 7 7 7 7 7 6 5 3 0 -2 -3 -4 -4 -4 -3 -3 -3 -3 -3 -3 -3 -3 -3 -3 -3 -3 -2 -2 -1 -1 0 1 2 3 4 6 6 7 8 9 10
6 5 4 4 4 5 6 7 7 8 8 8 8 7 6 4 1 -1 -2 -3 -3 -3 -3 -3 -3 -3 -3 -3 -3 -3 -2 -2 -2 -2 -2 -1 -1 -0 0 1 2 3 4 5 6 6 7 7 8
5 4 4 5 5 6 7 7 7 7 7 8 8 8 7 5 2 1 -1 -1 -2 -2 -2 -2 -2 -3 -3 -3 -3 -3 -2 -2 -2 -1 -1 -1 -0 0 1 1 2 3 4 5 5 6 6 6 7
5 4 5 6 7 7 7 7 7 7 7 7 8 8 7 6 5 3 2 1 0 -1 -1 -2 -1 -2 -2 -2 -2 -3 -2 -2 -1 -1 -1 -1 -0 0 1 2 2 3 4 4 5 5 6 6 6
5 5 6 7 7 7 7 7 7 7 7 8 8 8 8 7 6 6 6 5 4 3 2 1 1 0 -0 -1 -1 -2 -2 -2 -1 -1 -1 -1 -0 0 1 2 2 3 3 4 4 5 5 6 6
6 6 7 7 8 8 8 7 7 7 8 8 8 8 8 8 7 8 8 8 8 7 6 6 5 4 3 2 0 -1 -2 -2 -1 -1 -1 -1 -0 0 1 1 2 2 3 3 4 4 4 5 5
6 6 6 7 7 8 8 7 7 7 8 8 8 8 8 8 8 8 8 9 9 9 9 9 9 8 6 4 2 0 -1 -1 -1 -1 -1 -1 -0 0 1 1 2 2 3 3 4 4 4 5 5
6 6 6 6 7 8 7 6 6 7 8 8 8 8 8 8 8 8 8 9 9 9 9 9 9 9 7 5 2 1 0 -0 -0 -0 -0 -0 -0 0 1 1 2 3 3 4 4 4 5 5 5
5 5 4 5 7 7 6 5 6 7 7 7 7 7 8 8 8 8 9 9 9 9 9 9 9 9 7 5 3 2 1 1 1 1 1 1 1 1 1 2 3 3 4 5 5 6 6 6 7
4 4 3 5 6 7 6 5 6 7 7 7 7 7 7 7 7 8 9 9 10 9 9 9 9 9 7 5 4 3 2 2 2 2 2 2 2 2 2 3 4 4 5 6 6 7 8 9 9
4 3 3 4 6 7 6 5 6 7 7 7 7 6 6 6 7 7 8 9 10 10 10 9 9 9 7 6 4 4 3 3 3 3 3 3 3 3 4 4 5 5 6 7 8 10 11 12 12
4 4 3 4 6 6 6 5 6 7 6 6 6 6 6 6 6 7 8 9 9 10 10 9 9 9 8 6 5 5 4 4 4 5 5 5 4 5 5 5 6 6 7 9 11 13 13 13 13
4 4 3 4 6 7 6 5 6 6 7 6 6 6 6 6 6 6 7 8 9 9 10 10 9 9 8 6 5 5 5 5 5 5 6 5 5 5 6 6 7 8 10 12 14 15 15 15 15
4 4 4 4 5 6 5 4 5 6 6 6 6 6 6 6 6 6 6 7 8 9 10 10 10 9 8 6 6 6 6 6 5 5 6 6 6 7 7 8 10 12 13 15 16 16 16 16 16
4 5 5 5 5 5 4 4 4 5 5 5 5 5 5 5 5 6 6 7 7 9 10 10 10 9 8 7 7 6 6 6 6 6 6 6 8 9 10 12 13 15 16 16 17 17 18 17 17
5 6 6 5 4 4 3 3 3 4 4 4 4 4 5 5 5 5 6 7 8 9 10 10 10 9 8 8 7 7 7 6 6 6 6 7 9 12 14 15 16 17 17 17 17 18 18 18 18
6 6 5 4 3 3 3 3 3 4 4 4 4 4 4 5 5 5 6 7 8 9 10 10 10 9 8 8 7 7 7 6 6 6 6 7 10 13 16 17 18 18 18 18 18 18 19 19 18
5 4 3 2 1 2 3 3 4 6 6 5 5 4 4 5 5 5 6 7 8 9 10 11 10 9 9 8 8 7 7 6 6 5 6 8 11 14 17 18 18 18 18 18 19 19 19 19 19
4 4 2 1 1 2 3 4 5 7 7 6 5 5 5 5 5 6 6 7 8 9 10 11 10 9 9 8 8 7 6 6 6 5 7 10 13 15 17 17 18 18 18 19 19 20 20 20 20
4 4 4 3 2 2 3 4 6 7 7 6 5 4 4 5 6 6 7 7 8 9 10 11 10 9 9 9 8 7 7 6 6 6 9 12 15 16 17 17 18 18 19 19 20 20 20 20 20
5 4 4 4 2 1 2 4 5 6 6 6 5 4 4 5 6 7 7 8 8 9 10 11 10 9 9 9 8 8 7 7 7 8 11 14 16 17 17 17 18 18 19 19 19 20 20 20 20
4 4 4 4 3 2 2 3 5 6 6 6 5 4 4 5 5 6 7 8 9 10 10 10 10 9 9 9 8 7 7 7 8 10 13 16 16 17 17 17 18 18 18 19 19 19 19 20 20
4 4 4 4 3 3 2 3 6 7 6 5 5 4 4 5 5 6 7 8 9 10 10 10 10 9 9 9 8 7 7 7 9 12 15 16 17 17 17 17 17 18 18 18 18 19 19 19 20